Location: Votelez
(50.0000°N, 15.0000°E)
Time: 10:15:37
(UTC+01:00)

ISS - Pass Details

Date: 19 February 2026
Orbit: 416 x 426 km, 51.6° (Epoch: 9 March)

Event Time Altitude Azimuth Distance (km) Brightness Sun altitude
Exits shadow 04:10:01 17° 97° (E) 1,127 -0.9 -28.3°
Drops below altitude 10° 04:11:07 10° 85° (E) 1,495 0.0 -28.1°
Sets 04:13:23 0° 74° (ENE) 2,360 1.3 -27.8°
